Home   Weather   Rheine   Past weeks

Flag for Germany Past Weather in Rheine, North Rhine-Westphalia, Germany — Yesterday and Last 2 Weeks

Now
46 °F

Cool.


Feels Like: 43 °F
Forecast: 35 / 61 °F
Wind: 7 mph from West

Location: Rheine-Bentlage

Current Time: Apr 29, 2017 at 11:47:31 am

Latest Report: Apr 29, 2017 at 10:20 am


Visibility: N/A

Pressure: 30.07 "Hg

Humidity: 66%

Dew Point: 36 °F

Location of RheineLocation

Past Weather in Rheine — Graph

°F

Rheine Temperature Yesterday

Maximum temperature yesterday: 50 °F (at 1:20 pm)
Minimum temperature yesterday: 36 °F (at 12:20 am)
Average temperature yesterday: 42 °F

High & Low Weather Summary for the Past Weeks

 TemperatureHumidityPressure
High55 °F (Apr 21, 11:20 am)100% (Apr 27, 4:20 am)30.63 "Hg (Apr 27, 4:20 am)
Low27 °F (Apr 20, 6:20 am)30% (Apr 20, 3:20 pm)29.65 "Hg (Apr 25, 3:20 am)
Average44 °F71%30.10 "Hg
* Reported Apr 14 10:20 am — Apr 29 10:20 am, Rheine, Weather by CustomWeather, © 2017

Note: Actual official high and low records may vary slightly from our data, if they occured in-between our weather recording intervals... More about our weather records

Advertising

Rheine Weather History for the Previous 24 Hours

Scroll right to see more
 ConditionsComfort  
Time TempWeatherWind HumidityBarometerVisibility
10:20 am
Sat, Apr 29
46 °FCool.7 mph66%30.07 "HgN/A
9:20 am43 °FQuite cool.8 mph81%30.07 "HgN/A
8:20 am41 °FQuite cool.6 mph87%30.04 "HgN/A
7:20 am37 °FChilly.2 mph93%30.04 "HgN/A
6:20 am36 °FChilly.2 mph93%30.04 "HgN/A
5:20 am37 °FChilly.2 mph93%30.04 "HgN/A
4:20 am37 °FChilly.3 mph87%30.04 "HgN/A
3:20 am37 °FChilly.3 mph93%30.01 "HgN/A
2:20 am39 °FChilly.5 mph87%30.01 "HgN/A
1:20 am39 °FChilly.3 mph87%30.01 "HgN/A
12:20 am39 °FChilly.5 mph87%30.01 "HgN/A
11:20 pm
Fri, Apr 28
37 °FChilly.2 mph93%29.98 "HgN/A
10:20 pm43 °FQuite cool.3 mph76%29.98 "HgN/A
9:20 pm45 °FQuite cool.7 mph71%29.98 "HgN/A
8:20 pm48 °FCool.7 mph66%29.95 "HgN/A
7:20 pm48 °FCool.6 mph71%29.95 "HgN/A
6:20 pm48 °FCool.5 mph82%29.92 "HgN/A
5:20 pm46 °FCool.2 mph82%29.92 "HgN/A
4:20 pm48 °FCool.7 mph76%29.92 "HgN/A
3:20 pm46 °FCool.6 mph87%29.92 "HgN/A
2:20 pm48 °FCool.12 mph66%29.92 "HgN/A
1:20 pm50 °FCool.8 mph67%29.89 "HgN/A
12:20 pm46 °FCool.7 mph71%29.92 "HgN/A
11:20 am45 °FPartly sunny.6 mph76%29.92 "HgN/A
Weather by CustomWeather, © 2017

See weather overviewHow to use our weather pages